Air Resources Laboratory banner image
Air Resources Laboratory web site National Oceanic and Atmospheric Administration (NOAA)

nc roundup


Office: RAH

ASUS42 KRAH 220110
RWRRAH
NORTH CAROLINA WEATHER ROUNDUP
NATIONAL WEATHER SERVICE RALEIGH NC
900 PM EDT SUN OCT 21 2018

NOTE: "FAIR" INDICATES FEW OR NO CLOUDS BELOW 12,000 FEET WITH NO
SIGNIFICANT WEATHER AND/OR OBSTRUCTIONS TO VISIBILITY.

NCZ001-053-055-056-065-067-220200-
WESTERN NORTH CAROLINA

CITY           SKY/WX    TMP DP  RH WIND       PRES   REMARKS
ASHEVILLE      FAIR      44  31  60 N7        30.25R
JEFFERSON      FAIR      40  24  53 W6        30.22R
MORGANTON      FAIR      46  32  56 N6        30.27R
HICKORY        FAIR      47  34  60 N5        30.23R
RUTHERFORDTON  NOT AVBL
MOUNT AIRY     FAIR      46  33  60 NW3       30.25S
BOONE          FAIR      35  28  73 CALM      30.24S
$$

NCZ021-022-025-041-071-084-088-220200-
CENTRAL NORTH CAROLINA

CITY           SKY/WX    TMP DP  RH WIND       PRES   REMARKS
CHARLOTTE      FAIR      48  36  63 CALM      30.23S
GREENSBORO     FAIR      44  37  76 N3        30.23S
WINSTON-SALEM  FAIR      45  34  65 CALM      30.24S
RALEIGH-DURHAM FAIR      41  37  86 CALM      30.25R
FORT BRAGG     FAIR      46  37  69 CALM      30.23R
FAYETTEVILLE   FAIR      48  35  60 CALM      30.24R
BURLINGTON     FAIR      42  36  79 S3        30.23S
LAURINBURG     FAIR      44  39  82 CALM      30.25R
$$

NCZ011-015-027-028-043-044-047-080-103-220200-
NORTHEASTERN NORTH CAROLINA

CITY           SKY/WX    TMP DP  RH WIND       PRES   REMARKS
ROCKY MT-WILSO FAIR      47  37  68 NW3       30.25R
GREENVILLE     FAIR      46  37  71 CALM      30.26R
WASHINGTON     FAIR      44  39  83 CALM      30.24R
ELIZABETH CITY FAIR      46  35  65 W5        30.21R
MANTEO         FAIR      52  32  45 N9G16     30.21R
CAPE HATTERAS  FAIR      56  37  49 VRB5      30.20R
$$

NCZ078-087-090-091-093-098-101-220200-
SOUTHEASTERN NORTH CAROLINA

CITY           SKY/WX    TMP DP  RH WIND       PRES   REMARKS
LUMBERTON      FAIR      45  40  82 CALM      30.24R
GOLDSBORO      FAIR      50  35  56 CALM      30.23R
KINSTON        CLEAR     41  39  93 NW5       30.25R
KENANSVILLE    NOT AVBL
NEW BERN       FAIR      49  38  65 NW6       30.23R
CHERRY POINT   FAIR      53  39  59 N7        30.23R
BEAUFORT       FAIR      52  39  61 N10       30.21R
JACKSONVILLE   FAIR      51  37  58 N5        30.22R
WILMINGTON     FAIR      46  37  71 N6        30.23R
$$





Office: AKQ ASUS41 KAKQ 220114 RWRAKQ REGIONAL WEATHER ROUNDUP NATIONAL WEATHER SERVICE WAKEFIELD VA 900 PM EDT SUN OCT 21 2018 Note: "fair" indicates few or no clouds below 12,000 feet with no significant weather and/or obstructions to visibility. * = Denotes station may not report precipitation (e.g., rain,snow,etc.), thunder or fog. VAZ042-051-052>054-056-220200- NORTHERN VIRGINIA CITY SKY/WX TMP DP RH WIND PRES REMARKS WASH NATIONAL FAIR 47 29 49 NW12 30.24R DULLES FAIR 42 30 62 NW7 30.25R FORT BELVOIR FAIR 44 34 68 NW10 30.24R QUANTICO FAIR 43 36 76 NW5 30.26R FREDERICKSBRG* FAIR 43 34 71 CALM 30.25R STAFFORD* FAIR 37 37 99 CALM 30.29R WARRENTON FAIR 39 30 70 CALM 30.24S CULPEPER* FAIR 38 32 81 CALM 30.26R MANASSAS* MOCLDY 43 30 60 N7 30.25S LEESBURG* FAIR 43 32 65 NW15 30.25S WINCHESTER MOCLDY 39 28 65 NW9 30.26S FRONT ROYAL* FAIR 37 32 81 CALM 30.24S LURAY* FAIR 41 30 65 NW5 30.25S $$ VAZ048-049-060>072-079>083-220200- CENTRAL AND SOUTH CENTRAL VIRGINIA CITY SKY/WX TMP DP RH WIND PRES REMARKS RICHMOND FAIR 44 34 67 N8 30.24R CHESTERFIELD* FAIR 39 36 89 CALM 30.24R PETERSBURG* FAIR 37 35 92 CALM 30.24R HANOVER FAIR 43 34 70 CALM 30.26R TAPPAHANNOCK* FAIR 42 36 79 CALM 30.24R QUINTON* FAIR 40 37 87 CALM 30.23R CHARLOTTSVILLE FAIR 41 30 65 NW7 30.24S GORDONSVILLE* FAIR 39 34 81 N3 30.24R ORANGE* FAIR 37 32 81 CALM 30.25R LOUISA* FAIR 37 32 82 NW5 30.29R BUMPASS* FAIR 42 32 66 NW3 30.24R FARMVILLE* FAIR 41 34 75 CALM 30.23 CREWE* FAIR 37 36 96 CALM 30.23R FORT PICKETT* FAIR 43 33 69 N5 30.23R CHASE CITY* FAIR 40 36 84 CALM 30.25R CLARKSVILLE* FAIR 39 36 87 CALM 30.24R SOUTH HILL* FAIR 42 38 88 CALM 30.31R LAWRENCEVILLE* FAIR 41 38 90 MISG 30.24R EMPORIA* FAIR 41 37 87 CALM 30.26R $$ VAZ088>098-220200- SOUTHEAST VIRGINIA CITY SKY/WX TMP DP RH WIND PRES REMARKS NORFOLK FAIR 53 35 50 N13G22 30.20R VIRGINIA BEACH FAIR 50 35 56 NW13 30.19R NORFOLK NAVAL FAIR 51 34 52 N15G25 30.22R WEST POINT* FAIR 44 36 72 N3 30.25R SALUDA* FAIR 47 35 61 NW13 30.22R NEWPORT NEWS FAIR 44 35 70 N6 30.22R LANGLEY AFB FAIR 47 33 58 N9 30.22R FORT EUSTIS FAIR 48 35 60 N8 30.20R WILLIAMSBURG* FAIR 45 37 76 CALM 30.24R HR EXEC AP* FAIR 37 36 96 CALM 30.23R FRANKLIN* FAIR 40 36 85 CALM 30.24R US460-WAKEFLD FAIR 45 34 65 N3 30.22R $$ VAZ020-022-025-037-045-220200- WEST CENTRAL AND SOUTHWEST VIRGINIA CITY SKY/WX TMP DP RH WIND PRES REMARKS STAUNTON* FAIR 38 28 66 NW3 30.26R WAYNESBORO* FAIR 38 28 68 CALM 30.23S HOT SPRINGS VA FAIR 32 30 93 CALM 30.18S LYNCHBURG FAIR 43 31 62 N3 30.23S DANVILLE FAIR 38 34 85 CALM 30.25R SOUTH BOSTON* FAIR 43 31 62 CALM 30.25R MARTINSVILLE FAIR 36 36 100 CALM 30.26S ROANOKE FAIR 44 28 53 CALM 30.27R BLACKSBURG FAIR 38 31 73 CALM 30.28R DUBLIN* FAIR 42 30 62 W3 30.26R MARION* FAIR 40 31 72 CALM 30.27S HILLSVILLE* FAIR 41 26 56 NW9 30.21S RICHLANDS* FAIR 36 28 71 CALM 30.26R WISE* FAIR 37 32 81 CALM 30.28R ABINGDON* FAIR 39 34 81 CALM 30.26R $$ MDZ021>025-VAZ099-100-220200- SOUTHERN MARYLAND AND THE DELMARVA PENINSULA CITY SKY/WX TMP DP RH WIND PRES REMARKS PATUXENT RIVER FAIR 49 32 52 NW13 30.22R BAY BRIDGE APT FAIR 46 34 61 NW13G18 30.21R LEONARDTOWN FAIR 43 32 65 W5 30.25R DOVER FAIR 41 30 65 NW5 30.19R GEORGETOWN FAIR 43 33 68 CALM 30.20R EASTON CLEAR 48 32 53 NW13G20 30.24R CAMBRIDGE CLEAR 48 32 53 NW13G22 30.21R SALISBURY FAIR 41 35 79 CALM 30.20R TANGIER FAIR 52 37 58 NW23G31 30.21R OCEAN CITY FAIR 40 34 79 NW3 30.19R WALLOPS ISLAND FAIR 47 33 58 W7 30.20R ACCOMACK* FAIR 49 35 58 NW7 30.20R $$ NCZ012>017-030>032-220200- NORTH CENTRAL AND EASTERN NORTH CAROLINA CITY SKY/WX TMP DP RH WIND PRES REMARKS ROANOKE RAPIDS FAIR 45 36 70 CALM 30.24R RALEIGH FAIR 41 37 86 CALM 30.25R ELIZABETH CITY FAIR 46 35 65 W5 30.21R AHOSKIE* FAIR 40 38 95 CALM 30.24R EDENTON* FAIR 46 40 77 CALM 30.23R CURRITUCK* FAIR 43 39 86 MISG 30.22R KILL DEVIL HLS FAIR 51 34 51 CALM 30.19R MANTEO FAIR 52 32 45 N9G16 30.21R CAPE HATTERAS FAIR 56 37 49 VRB5 30.20R TARBORO* FAIR 42 39 89 CALM 30.24R GOLDSBORO FAIR 50 35 56 CALM 30.23R WASHINGTON FAIR 44 39 83 CALM 30.24R GREENVILLE FAIR 46 37 71 CALM 30.26R NEW BERN FAIR 49 38 65 NW6 30.23R WILMINGTON FAIR 46 37 71 N6 30.23R $$ VAZ048-220200- ELSEWHERE CITY SKY/WX TMP DP RH WIND PRES REMARKS HARRISBURG PA CLOUDY 44 30 57 W5 30.19R BALTIMORE FAIR 43 32 65 W10 30.21R ANNAPOLIS FAIR 50 34 54 W7G17 30.21R ANDREWS AFB FAIR 45 29 54 NW15G21 30.22R PHILADELPHIA FAIR 44 26 49 NW13 30.19R HENDERSON NC FAIR 38 34 84 CALM 30.25R GREENSBORO FAIR 44 37 76 N3 30.23S ROCKY MOUNT FAIR 47 37 68 NW3 30.25R $$ VAZ100-220200- MARINE STATION/POSITION TIME TEMP WIND PRES WAVE SWELL AIR SEA DIR/SP/G HT/PER HT/PER (UTC) (F) (DEG/KT/KT) (MB) (FT/S) (FT/S) BRANDYWINE LGT 0042 53 340/ 22/ 29 1021.9R CAPE MAY NJ 0036 49 61 350/ 16/ 25 1021.3R LEWES DE 0042 51 61 340/ 22/ 26 1021.8R 15NM E FENWICK I 0050 65 1020.9R 5/ 6 2/11 OCEAN-CITY-INLET 0042 49 65 340/ 8/ 10 1022.4R WACHAPREAGUE VA 0042 48 58 270/ 2/ 5 1022.5R THOMAS POINT MD 0100 47 59 310/ 17/ 20 1024.1R GOOSES REEF MD 0050 50 CALM 1023.6R COVE POINT MD 0042 47 310/ 13/ 17 1023.9R SOLOMONS ISLAND 0042 47 66 300/ 10/ 16 1023.3R BISHOPS HEAD MD 0042 49 53 320/ 14/ 16 1023.4R PINEY POINT MD 0042 350/ 22/ 24 N/A POTOMAC MD 0050 51 340/ 23/ 29 1022.4R CAMBRIDGE MD 0018 49 61 1023.2 LEWISETTA VA 0042 50 60 340/ 12/ 16 1023.3R RAPPAHANNOCK LGT 0042 310/ 22/ 27 1023.3R STINGRAY PT 0050 51 360/ 16/ 19 1022.7R YORK RVR RNG VA 0042 51 360/ 17/ 19 1023.3R YORKTOWN VA 0042 49 68 350/ 11/ 14 1023.0R DOMINION TERM VA 0042 50 10/ 1/ 4 1023.2R KIPTOPEKE VA 0042 62 350/ 19/ 26 N/A CAPE HENRY VA 0042 53 330/ 21/ 25 1020.7R WILLOUBY STN VA 0042 52 350/ 11/ 14 1022.3R S CRANEY ISL VA 0042 52 360/ 16/ 21 1022.3R CAPE HENRY BUOY 0030 70 N/A 5/ 6 1ST LANDING BUOY 0050 54 350/ 21/ 25 1021.9R 64NM E OF VA BCH 0050 56 66 330/ 21/ 25 1021.4R 8/ 7 2/10 DUCK PIER NC 0042 55 69 330/ 15/ 17 1021.7R 44100 DUCK FRF 0045 70 N/A 6/ 6 44056 DUCK FRF 0100 71 N/A 5/ 7 OREGON INLET NC 0042 54 66 320/ 10/ 16 1022.2R HATTERAS NC 0042 57 69 340/ 14/ 18 1022.1R DIAMOND SHLS NC 0050 59 75 340/ 14/ 19 1022.5R 4/ 8 3/ 8 CAPE LOOKOUT NC 0000 340/ 15/ 17 1022.7R $$